| time (UTC) | temp F | wind direction | speed MPH | gust MPH | rain 1hr in | rain 24hr in | rain mn in | humidity % | barometer mb |
| 20260903064920 | 75 | 142 | 0.0 | 0.0 | 0.00 | 0.00 | 0.00 | 82 | 1007.7 |
| 20260903064416 | 75 | 141 | 0.0 | 0.0 | 0.00 | 0.00 | 0.00 | 82 | 1007.9 |
| 20260903063911 | 75 | 141 | 0.0 | 0.0 | 0.00 | 0.00 | 0.00 | 82 | 1007.8 |
| 20260903063406 | 75 | 141 | 0.0 | 0.0 | 0.00 | 0.00 | 0.00 | 82 | 1008.2 |
| 20260903062901 | 75 | 141 | 0.0 | 0.0 | 0.00 | 0.00 | 0.00 | 82 | 1008.3 |
| 20260903062356 | 75 | 141 | 0.0 | 0.0 | 0.00 | 0.00 | 0.00 | 81 | 1008.3 |
| 20260903061853 | 76 | 141 | 0.0 | 0.0 | 0.00 | 0.00 | 0.00 | 80 | 1008.5 |
| 20260903061351 | 76 | 142 | 0.0 | 0.0 | 0.00 | 0.00 | 0.00 | 80 | 1008.4 |
| 20260903060848 | 76 | 142 | 0.0 | 0.0 | 0.00 | 0.00 | 0.00 | 79 | 1008.5 |
| 20260903060347 | 76 | 125 | 0.0 | 1.0 | 0.00 | 0.00 | 0.00 | 78 | 1008.6 |
| 20260903055845 | 77 | 130 | 0.0 | 1.0 | 0.00 | 0.00 | 0.00 | 78 | 1008.4 |
| 20260903055343 | 77 | 121 | 0.0 | 0.0 | 0.00 | 0.00 | 0.00 | 78 | 1008.7 |
| 20260903054838 | 77 | 109 | 1.0 | 1.0 | 0.00 | 0.00 | 0.00 | 77 | 1008.6 |
| 20260903054338 | 77 | 154 | 1.0 | 1.0 | 0.00 | 0.00 | 0.00 | 78 | 1008.8 |
| 20260903053834 | 77 | 55 | 0.0 | 1.0 | 0.00 | 0.00 | 0.00 | 79 | 1008.9 |
| 20260903053330 | 77 | 175 | 2.0 | 2.0 | 0.00 | 0.00 | 0.00 | 79 | 1008.9 |
| 20260903052826 | 77 | 108 | 1.0 | 1.0 | 0.00 | 0.00 | 0.00 | 79 | 1009.1 |
| 20260903052321 | 78 | 132 | 4.0 | 4.0 | 0.00 | 0.00 | 0.00 | 78 | 1009.0 |
| 20260903051817 | 80 | 102 | 2.0 | 3.0 | 0.00 | 0.00 | 0.00 | 77 | 1008.8 |
| 20260903051312 | 84 | 2 | 2.0 | 6.0 | 0.00 | 0.00 | 0.00 | 75 | 1008.7 |
| 20260903050807 | 84 | 155 | 0.0 | 1.0 | 0.00 | 0.00 | 0.00 | 75 | 1007.5 |
| 20260903050306 | 84 | 149 | 1.0 | 2.0 | 0.00 | 0.00 | 0.00 | 76 | 1007.4 |
| 20260903045801 | 84 | 161 | 1.0 | 1.0 | 0.00 | 0.00 | 0.00 | 76 | 1007.3 |
| 20260903045257 | 83 | 153 | 1.0 | 1.0 | 0.00 | 0.00 | 0.00 | 77 | 1007.1 |
| 20260903044753 | 83 | 156 | 0.0 | 1.0 | 0.00 | 0.00 | 0.00 | 76 | 1007.2 |
| 20260903044248 | 83 | 140 | 0.0 | 0.0 | 0.00 | 0.00 | 0.00 | 76 | 1007.2 |
| 20260903043745 | 83 | 243 | 2.0 | 2.0 | 0.00 | 0.00 | 0.00 | 76 | 1006.9 |
| 20260903043244 | 83 | 151 | 0.0 | 0.0 | 0.00 | 0.00 | 0.00 | 76 | 1006.9 |
| 20260903042743 | 83 | 167 | 1.0 | 1.0 | 0.00 | 0.00 | 0.00 | 76 | 1006.9 |
| 20260903042239 | 84 | 147 | 0.0 | 0.0 | 0.00 | 0.00 | 0.00 | 75 | 1006.8 |
| 20260903041735 | 83 | 170 | 3.0 | 4.0 | 0.00 | 0.00 | 0.00 | 75 | 1006.7 |
| 20260903041231 | 83 | 154 | 0.0 | 0.0 | 0.00 | 0.00 | 0.00 | 76 | 1006.6 |
| 20260903040730 | 83 | 158 | 1.0 | 1.0 | 0.00 | 0.00 | 0.00 | 75 | 1006.7 |
| 20260903040225 | 83 | 154 | 0.0 | 0.0 | 0.00 | 0.00 | 0.00 | 76 | 1006.6 |
| 20260903035721 | 83 | 153 | 0.0 | 0.0 | 0.00 | 0.00 | 0.00 | 76 | 1006.7 |
| 20260903035217 | 83 | 187 | 1.0 | 1.0 | 0.00 | 0.00 | 0.00 | 76 | 1006.5 |
| 20260903034717 | 83 | 162 | 1.0 | 1.0 | 0.00 | 0.00 | 0.00 | 76 | 1006.5 |
| 20260903034212 | 83 | 155 | 1.0 | 1.0 | 0.00 | 0.00 | 0.00 | 76 | 1006.3 |
| 20260903033708 | 83 | 152 | 0.0 | 0.0 | 0.00 | 0.00 | 0.00 | 75 | 1006.3 |
| 20260903033207 | 83 | 149 | 0.0 | 0.0 | 0.00 | 0.00 | 0.00 | 75 | 1006.3 |
| 20260903032656 | 83 | 172 | 1.0 | 2.0 | 0.00 | 0.00 | 0.00 | 75 | 1006.2 |
| 20260903032152 | 83 | 142 | 1.0 | 1.0 | 0.00 | 0.00 | 0.00 | 75 | 1006.0 |
| 20260903031648 | 83 | 158 | 0.0 | 1.0 | 0.00 | 0.00 | 0.00 | 74 | 1006.0 |
| 20260903031147 | 84 | 151 | 1.0 | 1.0 | 0.00 | 0.00 | 0.00 | 74 | 1006.0 |
| 20260903030643 | 84 | 153 | 0.0 | 0.0 | 0.00 | 0.00 | 0.00 | 74 | 1005.8 |
| 20260903030138 | 84 | 146 | 0.0 | 1.0 | 0.00 | 0.00 | 0.00 | 74 | 1006.2 |
| 20260903025634 | 84 | 155 | 1.0 | 1.0 | 0.00 | 0.00 | 0.00 | 74 | 1006.3 |
| 20260903025129 | 84 | 165 | 0.0 | 1.0 | 0.00 | 0.00 | 0.00 | 74 | 1006.6 |
| 20260903024624 | 84 | 186 | 1.0 | 1.0 | 0.00 | 0.00 | 0.00 | 73 | 1006.7 |
| 20260903024119 | 84 | 157 | 1.0 | 1.0 | 0.00 | 0.00 | 0.00 | 73 | 1006.9 |
| 20260903023614 | 84 | 164 | 1.0 | 1.0 | 0.00 | 0.00 | 0.00 | 73 | 1006.9 |
| 20260903023115 | 84 | 155 | 1.0 | 2.0 | 0.00 | 0.00 | 0.00 | 73 | 1006.9 |
| 20260903022615 | 84 | 153 | 1.0 | 1.0 | 0.00 | 0.00 | 0.00 | 74 | 1006.9 |
| 20260903022114 | 84 | 152 | 0.0 | 0.0 | 0.00 | 0.00 | 0.00 | 73 | 1007.0 |
| 20260903021608 | 84 | 165 | 1.0 | 1.0 | 0.00 | 0.00 | 0.00 | 72 | 1006.9 |
| 20260903021108 | 84 | 329 | 1.0 | 3.0 | 0.00 | 0.00 | 0.00 | 72 | 1006.7 |
| 20260903020604 | 84 | 154 | 0.0 | 1.0 | 0.00 | 0.00 | 0.00 | 73 | 1007.1 |
| 20260903020104 | 85 | 146 | 1.0 | 1.0 | 0.00 | 0.00 | 0.00 | 72 | 1007.1 |
| 20260903015559 | 85 | 187 | 1.0 | 2.0 | 0.00 | 0.00 | 0.00 | 72 | 1007.1 |
| 20260903015055 | 85 | 139 | 1.0 | 1.0 | 0.00 | 0.00 | 0.00 | 72 | 1007.2 |
| 20260903014554 | 85 | 154 | 0.0 | 0.0 | 0.00 | 0.00 | 0.00 | 72 | 1007.0 |
| 20260903014044 | 85 | 148 | 1.0 | 2.0 | 0.00 | 0.00 | 0.00 | 72 | 1007.0 |
| 20260903013543 | 85 | 146 | 3.0 | 4.0 | 0.00 | 0.00 | 0.00 | 72 | 1007.2 |
| 20260903013038 | 85 | 238 | 2.0 | 3.0 | 0.00 | 0.00 | 0.00 | 72 | 1007.0 |
| 20260903012531 | 85 | 158 | 0.0 | 1.0 | 0.00 | 0.00 | 0.00 | 73 | 1007.3 |
| 20260903012030 | 85 | 153 | 0.0 | 1.0 | 0.00 | 0.00 | 0.00 | 72 | 1007.2 |
| 20260903011525 | 85 | 168 | 0.0 | 1.0 | 0.00 | 0.00 | 0.00 | 72 | 1007.0 |
| 20260903011020 | 86 | 217 | 0.0 | 1.0 | 0.00 | 0.00 | 0.00 | 72 | 1007.0 |
| 20260903010515 | 86 | 239 | 2.0 | 3.0 | 0.00 | 0.00 | 0.00 | 71 | 1007.0 |
| 20260903010013 | 86 | 154 | 1.0 | 1.0 | 0.00 | 0.00 | 0.00 | 72 | 1006.9 |
| 20260903005508 | 86 | 138 | 0.0 | 1.0 | 0.00 | 0.00 | 0.00 | 71 | 1006.9 |
| 20260903005004 | 86 | 151 | 0.0 | 0.0 | 0.00 | 0.00 | 0.00 | 71 | 1007.0 |
| 20260903004503 | 86 | 146 | 0.0 | 0.0 | 0.00 | 0.00 | 0.00 | 71 | 1006.9 |
| 20260903003959 | 86 | 179 | 1.0 | 2.0 | 0.00 | 0.00 | 0.00 | 71 | 1006.9 |
| 20260903003454 | 86 | 236 | 1.0 | 2.0 | 0.00 | 0.00 | 0.00 | 70 | 1006.9 |
| 20260903002949 | 86 | 157 | 0.0 | 0.0 | 0.00 | 0.00 | 0.00 | 69 | 1006.9 |
| 20260903002444 | 87 | 156 | 0.0 | 0.0 | 0.00 | 0.00 | 0.00 | 69 | 1007.0 |
| 20260903001944 | 87 | 154 | 0.0 | 0.0 | 0.00 | 0.00 | 0.00 | 68 | 1006.9 |
| 20260903001438 | 87 | 150 | 0.0 | 0.0 | 0.00 | 0.00 | 0.00 | 68 | 1006.8 |
| 20260903000937 | 87 | 175 | 1.0 | 2.0 | 0.00 | 0.00 | 0.00 | 68 | 1006.8 |
| 20260903000433 | 88 | 154 | 0.0 | 0.0 | 0.00 | 0.00 | 0.00 | 67 | 1006.7 |
| 20260902235931 | 88 | 186 | 1.0 | 1.0 | 0.00 | 0.00 | 0.00 | 66 | 1006.9 |
| 20260902235426 | 88 | 155 | 0.0 | 1.0 | 0.00 | 0.00 | 0.00 | 67 | 1006.9 |
| 20260902234921 | 88 | 160 | 0.0 | 1.0 | 0.00 | 0.00 | 0.00 | 65 | 1006.8 |
| 20260902234415 | 88 | 205 | 1.0 | 2.0 | 0.00 | 0.00 | 0.00 | 65 | 1006.9 |
| 20260902233915 | 89 | 159 | 1.0 | 1.0 | 0.00 | 0.00 | 0.00 | 65 | 1006.7 |
| 20260902233409 | 89 | 176 | 0.0 | 0.0 | 0.00 | 0.00 | 0.00 | 65 | 1006.8 |
| 20260902232908 | 89 | 153 | 0.0 | 0.0 | 0.00 | 0.00 | 0.00 | 65 | 1006.8 |
| 20260902232403 | 89 | 221 | 2.0 | 3.0 | 0.00 | 0.00 | 0.00 | 64 | 1006.9 |
| 20260902231902 | 90 | 176 | 0.0 | 1.0 | 0.00 | 0.00 | 0.00 | 64 | 1007.2 |
| 20260902231357 | 90 | 169 | 1.0 | 2.0 | 0.00 | 0.00 | 0.00 | 63 | 1006.6 |
| 20260902230847 | 90 | 153 | 2.0 | 2.0 | 0.00 | 0.00 | 0.00 | 63 | 1006.7 |
| 20260902230346 | 90 | 187 | 1.0 | 1.0 | 0.00 | 0.00 | 0.00 | 62 | 1006.9 |
| 20260902225845 | 90 | 151 | 1.0 | 2.0 | 0.00 | 0.00 | 0.00 | 63 | 1006.8 |
| 20260902225341 | 90 | 150 | 1.0 | 1.0 | 0.00 | 0.00 | 0.00 | 62 | 1006.5 |
| 20260902224839 | 90 | 156 | 0.0 | 0.0 | 0.00 | 0.00 | 0.00 | 63 | 1006.7 |
| 20260902224334 | 90 | 154 | 1.0 | 1.0 | 0.00 | 0.00 | 0.00 | 62 | 1006.6 |
| 20260902223832 | 90 | 169 | 2.0 | 3.0 | 0.00 | 0.00 | 0.00 | 62 | 1006.7 |
| 20260902223331 | 91 | 150 | 2.0 | 2.0 | 0.00 | 0.00 | 0.00 | 61 | 1006.8 |
| 20260902222825 | 91 | 150 | 2.0 | 2.0 | 0.00 | 0.00 | 0.00 | 61 | 1006.8 |
| 20260902222324 | 91 | 157 | 1.0 | 1.0 | 0.00 | 0.00 | 0.00 | 61 | 1006.6 |
| 20260902221819 | 91 | 149 | 1.0 | 1.0 | 0.00 | 0.00 | 0.00 | 61 | 1006.8 |
| 20260902221318 | 91 | 155 | 1.0 | 2.0 | 0.00 | 0.00 | 0.00 | 61 | 1006.6 |
| 20260902220814 | 91 | 140 | 1.0 | 1.0 | 0.00 | 0.00 | 0.00 | 61 | 1006.7 |
| 20260902220313 | 91 | 145 | 3.0 | 3.0 | 0.00 | 0.00 | 0.00 | 60 | 1006.7 |
| 20260902215808 | 92 | 162 | 1.0 | 2.0 | 0.00 | 0.00 | 0.00 | 60 | 1006.6 |
| 20260902215306 | 92 | 166 | 2.0 | 2.0 | 0.00 | 0.00 | 0.00 | 61 | 1006.9 |
| 20260902214800 | 92 | 187 | 2.0 | 2.0 | 0.00 | 0.00 | 0.00 | 59 | 1006.9 |
| 20260902214258 | 92 | 192 | 2.0 | 2.0 | 0.00 | 0.00 | 0.00 | 60 | 1006.9 |
| 20260902213754 | 92 | 154 | 2.0 | 2.0 | 0.00 | 0.00 | 0.00 | 60 | 1006.8 |
| 20260902213249 | 92 | 159 | 2.0 | 2.0 | 0.00 | 0.00 | 0.00 | 60 | 1007.0 |
| 20260902212747 | 92 | 198 | 2.0 | 2.0 | 0.00 | 0.00 | 0.00 | 58 | 1006.8 |
| 20260902212244 | 93 | 248 | 1.0 | 2.0 | 0.00 | 0.00 | 0.00 | 60 | 1006.9 |
| 20260902211740 | 93 | 150 | 2.0 | 3.0 | 0.00 | 0.00 | 0.00 | 59 | 1007.0 |
| 20260902211236 | 93 | 159 | 0.0 | 1.0 | 0.00 | 0.00 | 0.00 | 59 | 1007.0 |
| 20260902210730 | 93 | 157 | 2.0 | 2.0 | 0.00 | 0.00 | 0.00 | 58 | 1007.1 |
| 20260902210225 | 93 | 154 | 2.0 | 2.0 | 0.00 | 0.00 | 0.00 | 58 | 1007.1 |
| 20260902205723 | 93 | 144 | 1.0 | 2.0 | 0.00 | 0.00 | 0.00 | 58 | 1007.2 |
| 20260902205219 | 94 | 154 | 2.0 | 2.0 | 0.00 | 0.00 | 0.00 | 56 | 1007.2 |
| 20260902204714 | 95 | 148 | 1.0 | 1.0 | 0.00 | 0.00 | 0.00 | 57 | 1007.2 |
| 20260902204209 | 96 | 135 | 1.0 | 1.0 | 0.00 | 0.00 | 0.00 | 55 | 1007.4 |
| 20260902203703 | 96 | 160 | 1.0 | 2.0 | 0.00 | 0.00 | 0.00 | 56 | 1007.5 |
| 20260902203158 | 96 | 98 | 1.0 | 2.0 | 0.00 | 0.00 | 0.00 | 53 | 1007.5 |
| 20260902202653 | 96 | 151 | 1.0 | 1.0 | 0.00 | 0.00 | 0.00 | 52 | 1007.4 |
| 20260902202150 | 95 | 150 | 1.0 | 1.0 | 0.00 | 0.00 | 0.00 | 53 | 1007.4 |
| 20260902201646 | 95 | 187 | 2.0 | 2.0 | 0.00 | 0.00 | 0.00 | 54 | 1007.5 |
| 20260902201144 | 96 | 175 | 2.0 | 2.0 | 0.00 | 0.00 | 0.00 | 56 | 1007.6 |
| 20260902200639 | 96 | 157 | 1.0 | 1.0 | 0.00 | 0.00 | 0.00 | 56 | 1007.8 |
| 20260902200136 | 95 | 174 | 2.0 | 2.0 | 0.00 | 0.00 | 0.00 | 57 | 1007.8 |
| 20260902195631 | 96 | 148 | 1.0 | 1.0 | 0.00 | 0.00 | 0.00 | 57 | 1007.7 |
| 20260902195130 | 97 | 207 | 2.0 | 3.0 | 0.00 | 0.00 | 0.00 | 55 | 1007.8 |
| 20260902194629 | 96 | 156 | 1.0 | 1.0 | 0.00 | 0.00 | 0.00 | 56 | 1007.6 |
| 20260902194124 | 96 | 156 | 2.0 | 2.0 | 0.00 | 0.00 | 0.00 | 55 | 1007.8 |
| 20260902193621 | 96 | 48 | 0.0 | 1.0 | 0.00 | 0.00 | 0.00 | 56 | 1007.9 |
| 20260902193120 | 95 | 170 | 1.0 | 1.0 | 0.00 | 0.00 | 0.00 | 56 | 1008.0 |
| 20260902192619 | 96 | 192 | 3.0 | 4.0 | 0.00 | 0.00 | 0.00 | 54 | 1008.1 |
| 20260902192118 | 96 | 169 | 1.0 | 1.0 | 0.00 | 0.00 | 0.00 | 58 | 1008.1 |
| 20260902191613 | 97 | 161 | 0.0 | 1.0 | 0.00 | 0.00 | 0.00 | 57 | 1007.8 |
| 20260902191107 | 96 | 148 | 2.0 | 2.0 | 0.00 | 0.00 | 0.00 | 57 | 1008.0 |
| 20260902190603 | 96 | 245 | 2.0 | 2.0 | 0.00 | 0.00 | 0.00 | 57 | 1008.3 |
| 20260902190058 | 95 | 193 | 3.0 | 4.0 | 0.00 | 0.00 | 0.00 | 58 | 1008.0 |
| 20260902185554 | 95 | 156 | 2.0 | 2.0 | 0.00 | 0.00 | 0.00 | 58 | 1008.3 |
| 20260902185050 | 95 | 272 | 2.0 | 3.0 | 0.00 | 0.00 | 0.00 | 57 | 1008.1 |
| 20260902184545 | 94 | 164 | 1.0 | 1.0 | 0.00 | 0.00 | 0.00 | 58 | 1008.1 |
| 20260902184040 | 94 | 260 | 3.0 | 4.0 | 0.00 | 0.00 | 0.00 | 58 | 1008.3 |
| 20260902183537 | 94 | 263 | 3.0 | 4.0 | 0.00 | 0.00 | 0.00 | 58 | 1008.3 |
| 20260902183033 | 93 | 145 | 1.0 | 1.0 | 0.00 | 0.00 | 0.00 | 60 | 1008.4 |
| 20260902182528 | 93 | 189 | 2.0 | 3.0 | 0.00 | 0.00 | 0.00 | 59 | 1008.6 |
| 20260902182024 | 93 | 213 | 2.0 | 3.0 | 0.00 | 0.00 | 0.00 | 59 | 1008.7 |
| 20260902181520 | 93 | 153 | 0.0 | 1.0 | 0.00 | 0.00 | 0.00 | 60 | 1008.8 |
| 20260902181014 | 93 | 196 | 1.0 | 2.0 | 0.00 | 0.00 | 0.00 | 61 | 1008.7 |
| 20260902180509 | 93 | 155 | 1.0 | 1.0 | 0.00 | 0.00 | 0.00 | 59 | 1008.7 |
| 20260902180007 | 93 | 146 | 3.0 | 4.0 | 0.00 | 0.00 | 0.00 | 61 | 1008.7 |
| 20260902175505 | 93 | 155 | 0.0 | 0.0 | 0.00 | 0.00 | 0.00 | 61 | 1008.7 |
| 20260902175001 | 93 | 145 | 1.0 | 1.0 | 0.00 | 0.00 | 0.00 | 60 | 1008.9 |
| 20260902174457 | 93 | 98 | 2.0 | 2.0 | 0.00 | 0.00 | 0.00 | 60 | 1009.1 |
| 20260902173952 | 92 | 165 | 1.0 | 1.0 | 0.00 | 0.00 | 0.00 | 62 | 1008.9 |
| 20260902173452 | 91 | 173 | 1.0 | 1.0 | 0.00 | 0.00 | 0.00 | 65 | 1008.9 |
| 20260902172947 | 92 | 152 | 1.0 | 1.0 | 0.00 | 0.00 | 0.00 | 62 | 1009.1 |
| 20260902172446 | 91 | 153 | 0.0 | 0.0 | 0.00 | 0.00 | 0.00 | 66 | 1009.2 |
| 20260902171941 | 90 | 150 | 0.0 | 0.0 | 0.00 | 0.00 | 0.00 | 62 | 1009.2 |
| 20260902171437 | 90 | 151 | 2.0 | 2.0 | 0.00 | 0.00 | 0.00 | 63 | 1009.5 |
| 20260902170933 | 90 | 157 | 0.0 | 1.0 | 0.00 | 0.00 | 0.00 | 62 | 1009.7 |
| 20260902170428 | 91 | 166 | 1.0 | 1.0 | 0.00 | 0.00 | 0.00 | 63 | 1009.6 |
| 20260902165923 | 90 | 161 | 0.0 | 0.0 | 0.00 | 0.00 | 0.00 | 62 | 1009.7 |
| 20260902165423 | 90 | 151 | 0.0 | 1.0 | 0.00 | 0.00 | 0.00 | 63 | 1009.5 |
| 20260902164917 | 89 | 150 | 0.0 | 0.0 | 0.00 | 0.00 | 0.00 | 63 | 1009.6 |
| 20260902164412 | 89 | 152 | 0.0 | 1.0 | 0.00 | 0.00 | 0.00 | 63 | 1009.6 |
| 20260902163911 | 89 | 151 | 1.0 | 1.0 | 0.00 | 0.00 | 0.00 | 63 | 1009.7 |
| 20260902163407 | 90 | 149 | 1.0 | 1.0 | 0.00 | 0.00 | 0.00 | 63 | 1009.7 |
| 20260902162904 | 90 | 158 | 1.0 | 1.0 | 0.00 | 0.00 | 0.00 | 64 | 1009.6 |
| 20260902162400 | 89 | 156 | 0.0 | 1.0 | 0.00 | 0.00 | 0.00 | 63 | 1009.5 |
| 20260902161859 | 89 | 145 | 0.0 | 0.0 | 0.00 | 0.00 | 0.00 | 65 | 1009.7 |
| 20260902161355 | 89 | 153 | 0.0 | 0.0 | 0.00 | 0.00 | 0.00 | 64 | 1009.7 |
| 20260902160851 | 89 | 149 | 0.0 | 1.0 | 0.00 | 0.00 | 0.00 | 63 | 1009.7 |
| 20260902160346 | 89 | 151 | 0.0 | 0.0 | 0.00 | 0.00 | 0.00 | 67 | 1009.6 |
| 20260902155844 | 89 | 148 | 0.0 | 0.0 | 0.00 | 0.00 | 0.00 | 64 | 1009.5 |
| 20260902155343 | 89 | 3 | 1.0 | 2.0 | 0.00 | 0.00 | 0.00 | 64 | 1009.7 |
| 20260902154838 | 88 | 150 | 0.0 | 0.0 | 0.00 | 0.00 | 0.00 | 66 | 1009.7 |
| 20260902154334 | 88 | 170 | 0.0 | 0.0 | 0.00 | 0.00 | 0.00 | 67 | 1009.9 |
| 20260902153833 | 88 | 150 | 0.0 | 1.0 | 0.00 | 0.00 | 0.00 | 68 | 1009.6 |
| 20260902153332 | 88 | 158 | 0.0 | 1.0 | 0.00 | 0.00 | 0.00 | 71 | 1009.8 |
| 20260902152828 | 87 | 154 | 1.0 | 1.0 | 0.00 | 0.00 | 0.00 | 70 | 1009.8 |
| 20260902152324 | 87 | 145 | 1.0 | 1.0 | 0.00 | 0.00 | 0.00 | 68 | 1009.6 |
| 20260902151819 | 87 | 146 | 0.0 | 0.0 | 0.00 | 0.00 | 0.00 | 71 | 1009.8 |
| 20260902151314 | 87 | 156 | 0.0 | 0.0 | 0.00 | 0.00 | 0.00 | 71 | 1009.7 |
| 20260902150809 | 87 | 137 | 1.0 | 1.0 | 0.00 | 0.00 | 0.00 | 70 | 1009.8 |
| 20260902150305 | 87 | 153 | 0.0 | 1.0 | 0.00 | 0.00 | 0.00 | 71 | 1009.7 |
| 20260902145804 | 87 | 149 | 1.0 | 1.0 | 0.00 | 0.00 | 0.00 | 70 | 1009.9 |
| 20260902145300 | 87 | 162 | 0.0 | 0.0 | 0.00 | 0.00 | 0.00 | 71 | 1009.9 |
| 20260902144755 | 86 | 152 | 0.0 | 0.0 | 0.00 | 0.00 | 0.00 | 71 | 1009.7 |
| 20260902144251 | 86 | 145 | 0.0 | 0.0 | 0.00 | 0.00 | 0.00 | 72 | 1009.7 |
| 20260902143746 | 85 | 148 | 0.0 | 1.0 | 0.00 | 0.00 | 0.00 | 74 | 1009.9 |
| 20260902143241 | 85 | 150 | 2.0 | 2.0 | 0.00 | 0.00 | 0.00 | 73 | 1009.8 |
| 20260902142736 | 85 | 164 | 1.0 | 1.0 | 0.00 | 0.00 | 0.00 | 74 | 1009.7 |
| 20260902142233 | 84 | 169 | 0.0 | 0.0 | 0.00 | 0.00 | 0.00 | 75 | 1009.6 |
| 20260902141732 | 84 | 193 | 2.0 | 3.0 | 0.00 | 0.00 | 0.00 | 75 | 1009.6 |
| 20260902141228 | 84 | 196 | 0.0 | 1.0 | 0.00 | 0.00 | 0.00 | 76 | 1009.7 |
| 20260902140723 | 84 | 152 | 0.0 | 1.0 | 0.00 | 0.00 | 0.00 | 77 | 1009.6 |
| 20260902140218 | 83 | 144 | 0.0 | 0.0 | 0.00 | 0.00 | 0.00 | 77 | 1009.5 |
| 20260902135717 | 83 | 149 | 0.0 | 0.0 | 0.00 | 0.00 | 0.00 | 77 | 1009.6 |
| 20260902135213 | 83 | 124 | 0.0 | 0.0 | 0.00 | 0.00 | 0.00 | 77 | 1009.5 |
| 20260902134712 | 83 | 140 | 0.0 | 0.0 | 0.00 | 0.00 | 0.00 | 78 | 1009.6 |
| 20260902134209 | 83 | 245 | 0.0 | 1.0 | 0.00 | 0.00 | 0.00 | 78 | 1009.3 |
| 20260902133709 | 83 | 135 | 0.0 | 1.0 | 0.00 | 0.00 | 0.00 | 78 | 1009.4 |
| 20260902133208 | 83 | 150 | 1.0 | 2.0 | 0.00 | 0.00 | 0.00 | 78 | 1009.4 |
| 20260902132703 | 82 | 152 | 1.0 | 1.0 | 0.00 | 0.00 | 0.00 | 79 | 1009.4 |
| 20260902132159 | 82 | 149 | 0.0 | 1.0 | 0.00 | 0.00 | 0.00 | 79 | 1009.1 |
| 20260902131654 | 82 | 113 | 0.0 | 0.0 | 0.00 | 0.00 | 0.00 | 80 | 1009.3 |
| 20260902131150 | 82 | 179 | 1.0 | 2.0 | 0.00 | 0.00 | 0.00 | 80 | 1009.3 |
| 20260902130645 | 82 | 167 | 1.0 | 2.0 | 0.00 | 0.00 | 0.00 | 81 | 1009.2 |
| 20260902130141 | 81 | 197 | 1.0 | 1.0 | 0.00 | 0.00 | 0.00 | 82 | 1009.1 |
| 20260902125636 | 81 | 149 | 0.0 | 0.0 | 0.00 | 0.00 | 0.00 | 82 | 1009.2 |
| 20260902125131 | 81 | 149 | 0.0 | 1.0 | 0.00 | 0.00 | 0.00 | 82 | 1009.2 |
| 20260902124628 | 80 | 194 | 2.0 | 3.0 | 0.00 | 0.00 | 0.00 | 83 | 1009.1 |
| 20260902124128 | 80 | 112 | 0.0 | 1.0 | 0.00 | 0.00 | 0.00 | 83 | 1009.3 |
| 20260902123624 | 80 | 156 | 0.0 | 1.0 | 0.00 | 0.00 | 0.00 | 84 | 1009.3 |
| 20260902123119 | 80 | 155 | 0.0 | 0.0 | 0.00 | 0.00 | 0.00 | 84 | 1009.1 |
| 20260902122618 | 80 | 167 | 0.0 | 0.0 | 0.00 | 0.00 | 0.00 | 84 | 1009.2 |
| 20260902122114 | 80 | 162 | 1.0 | 1.0 | 0.00 | 0.00 | 0.00 | 84 | 1009.2 |
| 20260902121614 | 79 | 151 | 0.0 | 0.0 | 0.00 | 0.00 | 0.00 | 85 | 1009.4 |
| 20260902121109 | 79 | 202 | 2.0 | 3.0 | 0.00 | 0.00 | 0.00 | 85 | 1009.3 |
| 20260902120605 | 78 | 164 | 1.0 | 1.0 | 0.00 | 0.00 | 0.00 | 86 | 1009.2 |
| 20260902120101 | 78 | 158 | 0.0 | 1.0 | 0.00 | 0.00 | 0.00 | 87 | 1009.1 |
| 20260902115556 | 78 | 149 | 0.0 | 1.0 | 0.00 | 0.00 | 0.00 | 88 | 1009.3 |
| 20260902115052 | 78 | 152 | 0.0 | 0.0 | 0.00 | 0.00 | 0.00 | 88 | 1009.2 |
| 20260902114548 | 78 | 158 | 0.0 | 1.0 | 0.00 | 0.00 | 0.00 | 88 | 1009.3 |
| 20260902114048 | 78 | 148 | 0.0 | 1.0 | 0.00 | 0.00 | 0.00 | 88 | 1009.3 |
| 20260902113543 | 78 | 159 | 0.0 | 1.0 | 0.00 | 0.00 | 0.00 | 88 | 1009.2 |
| 20260902113038 | 78 | 154 | 0.0 | 0.0 | 0.00 | 0.00 | 0.00 | 88 | 1009.0 |
| 20260902112534 | 78 | 154 | 0.0 | 0.0 | 0.00 | 0.00 | 0.00 | 88 | 1009.1 |
| 20260902112030 | 77 | 152 | 0.0 | 1.0 | 0.00 | 0.00 | 0.00 | 88 | 1008.9 |
| 20260902111526 | 77 | 143 | 0.0 | 0.0 | 0.00 | 0.00 | 0.00 | 89 | 1008.8 |
| 20260902111022 | 77 | 153 | 0.0 | 0.0 | 0.00 | 0.00 | 0.00 | 89 | 1008.7 |
| 20260902110518 | 77 | 156 | 0.0 | 0.0 | 0.00 | 0.00 | 0.00 | 89 | 1008.7 |
| 20260902110013 | 77 | 158 | 0.0 | 0.0 | 0.00 | 0.00 | 0.00 | 89 | 1008.6 |
| 20260902105508 | 77 | 156 | 0.0 | 0.0 | 0.00 | 0.00 | 0.00 | 89 | 1008.7 |
| 20260902105008 | 77 | 164 | 3.0 | 4.0 | 0.00 | 0.00 | 0.00 | 89 | 1008.6 |
| 20260902104503 | 77 | 156 | 0.0 | 0.0 | 0.00 | 0.00 | 0.00 | 89 | 1008.7 |
| 20260902103958 | 77 | 158 | 0.0 | 0.0 | 0.00 | 0.00 | 0.00 | 88 | 1008.5 |
| 20260902103454 | 77 | 147 | 0.0 | 0.0 | 0.00 | 0.00 | 0.00 | 88 | 1008.6 |
| 20260902102948 | 77 | 159 | 1.0 | 1.0 | 0.00 | 0.00 | 0.00 | 89 | 1008.5 |
| 20260902102445 | 77 | 160 | 0.0 | 0.0 | 0.00 | 0.00 | 0.00 | 89 | 1008.5 |
| 20260902101941 | 77 | 156 | 0.0 | 0.0 | 0.00 | 0.00 | 0.00 | 89 | 1008.5 |
| 20260902101436 | 77 | 151 | 0.0 | 1.0 | 0.00 | 0.00 | 0.00 | 89 | 1008.4 |
| 20260902100935 | 77 | 154 | 0.0 | 0.0 | 0.00 | 0.00 | 0.00 | 89 | 1008.6 |
| 20260902100436 | 77 | 161 | 0.0 | 0.0 | 0.00 | 0.00 | 0.00 | 90 | 1008.6 |
| 20260902095935 | 77 | 158 | 0.0 | 0.0 | 0.00 | 0.00 | 0.00 | 90 | 1008.8 |
| 20260902095430 | 77 | 151 | 0.0 | 0.0 | 0.00 | 0.00 | 0.00 | 90 | 1008.6 |
| 20260902094929 | 77 | 151 | 0.0 | 0.0 | 0.00 | 0.00 | 0.00 | 90 | 1008.7 |
| 20260902094425 | 77 | 154 | 0.0 | 0.0 | 0.00 | 0.00 | 0.00 | 90 | 1008.6 |
| 20260902093920 | 77 | 152 | 0.0 | 0.0 | 0.00 | 0.00 | 0.00 | 90 | 1008.6 |
| 20260902093415 | 77 | 151 | 0.0 | 0.0 | 0.00 | 0.00 | 0.00 | 91 | 1008.7 |
| 20260902092914 | 77 | 158 | 0.0 | 1.0 | 0.00 | 0.00 | 0.00 | 91 | 1008.7 |
| 20260902092410 | 77 | 148 | 0.0 | 0.0 | 0.00 | 0.00 | 0.00 | 91 | 1008.7 |
| 20260902091910 | 76 | 149 | 0.0 | 0.0 | 0.00 | 0.00 | 0.00 | 91 | 1008.8 |
| 20260902091406 | 76 | 152 | 0.0 | 0.0 | 0.00 | 0.00 | 0.00 | 91 | 1008.8 |
| 20260902090902 | 76 | 154 | 0.0 | 0.0 | 0.00 | 0.00 | 0.00 | 92 | 1008.8 |
| 20260902090402 | 76 | 145 | 0.0 | 0.0 | 0.00 | 0.00 | 0.00 | 91 | 1008.8 |
| 20260902085901 | 76 | 166 | 0.0 | 1.0 | 0.00 | 0.00 | 0.00 | 92 | 1008.8 |
| 20260902085356 | 76 | 153 | 0.0 | 0.0 | 0.00 | 0.00 | 0.00 | 92 | 1008.7 |
| 20260902084852 | 76 | 148 | 0.0 | 0.0 | 0.00 | 0.00 | 0.00 | 92 | 1009.0 |
| 20260902084348 | 77 | 148 | 0.0 | 0.0 | 0.00 | 0.00 | 0.00 | 92 | 1008.8 |
| 20260902083843 | 77 | 144 | 0.0 | 0.0 | 0.00 | 0.00 | 0.00 | 92 | 1009.0 |
| 20260902083343 | 77 | 144 | 0.0 | 0.0 | 0.00 | 0.00 | 0.00 | 91 | 1008.7 |
| 20260902082838 | 77 | 148 | 0.0 | 0.0 | 0.00 | 0.00 | 0.00 | 91 | 1008.8 |
| 20260902082334 | 77 | 147 | 0.0 | 0.0 | 0.00 | 0.00 | 0.00 | 91 | 1009.0 |
| 20260902081831 | 77 | 144 | 0.0 | 0.0 | 0.00 | 0.00 | 0.00 | 91 | 1008.8 |
| 20260902081326 | 77 | 147 | 0.0 | 0.0 | 0.00 | 0.00 | 0.00 | 91 | 1008.8 |
| 20260902080820 | 77 | 147 | 0.0 | 0.0 | 0.00 | 0.00 | 0.00 | 91 | 1008.7 |
| 20260902080317 | 77 | 149 | 0.0 | 0.0 | 0.00 | 0.00 | 0.00 | 92 | 1008.7 |
| 20260902075816 | 77 | 141 | 0.0 | 0.0 | 0.00 | 0.00 | 0.00 | 92 | 1008.8 |
| 20260902075313 | 77 | 141 | 0.0 | 0.0 | 0.00 | 0.00 | 0.00 | 91 | 1008.6 |
| 20260902074808 | 77 | 148 | 0.0 | 0.0 | 0.00 | 0.00 | 0.00 | 91 | 1008.5 |
| 20260902074304 | 77 | 148 | 0.0 | 0.0 | 0.00 | 0.00 | 0.00 | 92 | 1008.6 |
| 20260902073804 | 76 | 151 | 0.0 | 0.0 | 0.00 | 0.00 | 0.00 | 92 | 1008.6 |
| 20260902073300 | 76 | 152 | 0.0 | 0.0 | 0.00 | 0.00 | 0.00 | 92 | 1008.7 |
| 20260902072755 | 76 | 153 | 0.0 | 0.0 | 0.00 | 0.00 | 0.00 | 92 | 1008.6 |
| 20260902072251 | 76 | 153 | 0.0 | 0.0 | 0.00 | 0.00 | 0.00 | 92 | 1008.6 |
| 20260902071748 | 76 | 146 | 0.0 | 0.0 | 0.00 | 0.00 | 0.00 | 92 | 1008.9 |
| 20260902071242 | 76 | 146 | 0.0 | 0.0 | 0.00 | 0.00 | 0.00 | 92 | 1008.8 |
| 20260902070739 | 76 | 143 | 0.0 | 0.0 | 0.00 | 0.00 | 0.00 | 92 | 1008.8 |
| 20260902070238 | 76 | 146 | 0.0 | 0.0 | 0.00 | 0.00 | 0.00 | 92 | 1008.5 |
| 20260902065737 | 75 | 146 | 0.0 | 0.0 | 0.00 | 0.00 | 0.00 | 93 | 1008.7 |